Location: Asbacherhof
(48.8543°N, 10.7903°E)
Time: 23:45:21
(UTC+00:00)

COSMOS 2428 - Pass Details

Date: 26 May 2022
Orbit: 846 x 854 km, 70.9° (Epoch: 26 June)

Event Time Altitude Azimuth Distance (km) Brightness Sun altitude
Exits shadow 01:12:19 - 259° (W) 2,655 4.9 -15.2°
Reaches altitude 10° 01:12:55 10° 263° (W) 2,472 4.8 -15.2°
Maximum altitude 01:17:29 24° 317° (NW) 1,676 4.4 -14.8°
Drops below altitude 10° 01:22:05 10° 11° (N) 2,481 6.3 -14.4°
Sets 01:25:02 0° 25° (NNE) 3,421 7.8 -14.2°
